Wind_Speed
20 22 24 25 27 28 30 31 33 34 35 37 38 40 41 43 45 46 48 49 50 52 54 55 59 61 59 59 62 63 63 64 65 67 68 69 69 70 71 71 72 73 74 74 74 74 74 74 75 75 76 76 77 77 77 76 76 75 74 74 75 75 75 76 76 78 79 81 82 84 85 86 87 87 88 90 92 93 94 95 95 95 95 95 95 95
23 25 27 29 30 32 33 34 35 37 38 40 41 43 44 46 47 49 50 52 52 53 55 56 60 65 65 61 62 65 66 67 67 69 70 71 72 72 73 73 74 75 75 75 75 75 76 76 76 77 77 78 78 78 78 78 77 76 76 76 77 78 79 79 81 82 84 85 86 87 88 89 89 90 91 91 93 94 95 96 96 96 95 95 95 94
27 28 30 32 33 34 36 37 38 40 41 43 44 45 47 48 49 52 53 54 55 55 56 56 58 67 70 66 63 65 68 70 70 71 72 72 73 74 75 76 76 77 77 77 77 77 77 78 77 78 78 79 79 79 79 79 78 78 78 78 79 80 82 83 85 86 87 88 89 90 91 91 92 92 93 94 95 95 96 96 96 96 95 95 94 94
30 31 33 34 36 37 38 40 41 43 44 45 47 48 50 51 51 53 55 56 58 59 59 57 56 64 72 72 68 66 69 72 73 74 75 75 75 76 77 78 78 79 79 80 80 79 79 79 79 79 79 80 80 80 80 81 80 80 81 81 82 83 85 87 89 90 91 91 92 93 94 94 94 95 95 96 96 97 97 96 96 95 95 94 93 93
32 33 35 36 38 39 41 42 44 45 47 48 50 51 52 54 55 55 56 57 59 61 64 62 57 60 70 75 73 69 71 73 75 77 78 77 77 78 79 80 81 81 82 82 82 82 81 80 80 80 80 80 81 81 82 82 83 83 84 84 84 86 88 90 92 93 93 94 94 95 96 96 96 97 97 97 98 97 97 97 96 95 94 93 93 92
34 35 37 39 40 42 43 45 46 48 49 51 53 54 55 56 58 59 59 59 60 62 65 67 63 60 67 75 75 72 73 74 75 78 79 78 78 78 80 81 83 83 84 84 85 85 83 82 81 81 81 81 82 82 83 84 85 87 87 88 88 89 91 93 94 95 96 96 97 97 97 98 98 98 98 98 98 98 97 97 95 94 94 93 92 91
36 38 40 41 43 45 46 48 49 51 52 54 55 57 58 59 60 61 62 62 63 63 66 70 69 65 67 75 77 75 75 76 77 79 80 79 78 79 80 82 84 86 86 86 86 86 86 84 83 81 81 82 83 84 85 86 88 90 91 91 91 92 93 95 96 97 97 98 99 99 99 99 99 99 98 98 98 98 97 96 95 94 93 92 91 91
40 41 43 44 46 47 49 51 52 53 55 56 58 59 60 61 62 63 64 65 66 66 68 72 74 71 71 77 79 77 77 78 79 81 80 79 79 79 80 83 86 88 89 89 88 87 86 85 83 81 82 83 85 86 87 89 91 94 95 95 95 94 95 97 98 99 99 100 100 101 100 100 100 99 98 98 98 97 96 95 94 93 92 91 91 90
43 44 46 47 49 50 52 53 55 56 57 59 60 61 62 64 65 66 67 68 69 68 70 73 75 75 75 81 83 81 80 80 80 81 81 80 79 79 81 83 86 89 92 92 90 88 87 85 82 82 84 86 88 90 91 92 94 96 97 98 98 97 98 99 100 101 101 102 102 101 101 100 99 99 98 97 97 96 96 95 94 92 91 90 90 90
46 47 49 50 52 53 55 56 58 59 61 62 63 64 65 66 67 68 69 71 71 71 72 74 77 77 77 83 87 86 85 84 83 83 81 80 80 80 81 84 86 90 94 95 92 89 87 85 83 84 86 89 92 93 94 95 96 98 100 100 100 100 100 101 102 103 103 103 103 102 101 100 99 97 97 96 96 96 95 94 93 92 90 90 89 89
50 51 52 54 55 56 58 59 61 62 64 65 66 67 68 69 70 71 72 74 74 73 73 75 78 79 80 84 88 90 89 89 87 85 83 81 81 82 83 84 86 90 95 97 94 91 89 87 86 87 90 93 96 97 98 99 99 100 101 103 103 103 103 103 104 104 104 103 103 102 100 99 98 96 95 95 95 95 94 93 92 91 90 89 89 89
54 54 55 57 58 60 61 62 64 66 67 68 70 70 71 71 72 72 73 75 76 76 75 76 78 79 81 85 89 91 92 92 91 87 85 84 84 85 84 84 87 91 95 97 96 94 92 92 91 91 93 96 99 101 102 102 102 102 103 104 105 104 104 104 104 104 103 103 102 101 99 98 96 94 94 94 94 94 93 92 91 90 89 88 88 88
57 59 59 61 62 63 64 65 67 69 70 72 73 74 75 75 75 73 75 76 76 76 76 76 78 79 81 86 91 93 93 94 92 88 87 87 87 87 86 86 89 93 95 96 97 96 96 96 96 96 97 99 101 103 104 105 105 105 105 105 106 105 105 105 104 103 103 102 101 99 98 96 95 93 92 93 93 93 92 91 90 89 88 87 87 87
59 62 63 64 66 67 68 69 71 71 73 75 76 78 79 80 79 77 76 77 78 78 76 76 78 79 81 86 92 94 94 95 92 89 89 90 89 88 88 88 91 94 96 97 98 98 99 99 99 98 99 100 102 104 105 106 107 106 106 105 105 104 104 104 103 102 101 100 99 98 96 95 93 91 91 92 92 92 91 89 88 87 87 87 86 86
60 64 67 68 69 70 71 73 75 75 76 77 79 81 82 83 84 82 80 80 80 79 77 76 78 80 82 87 92 95 96 96 93 91 92 93 94 94 93 93 94 96 98 99 100 101 101 102 101 101 101 102 103 104 105 106 106 106 105 104 103 103 103 102 102 101 100 99 97 96 94 93 91 90 90 91 91 90 89 88 87 86 86 86 85 85
62 66 70 71 72 73 74 75 77 79 79 80 82 84 84 85 86 86 85 84 84 83 80 78 78 80 83 87 91 95 96 95 93 93 95 96 99 101 101 100 101 101 102 102 102 102 103 103 103 103 103 102 102 103 104 104 104 104 104 102 102 102 101 101 100 99 98 97 96 94 93 92 90 88 88 89 89 89 87 86 85 85 85 84 84 83
64 67 72 75 75 76 77 78 80 82 83 83 85 87 88 88 89 89 88 87 88 88 85 83 81 81 84 87 90 94 96 95 96 97 97 99 102 104 105 106 106 106 105 105 104 104 104 104 104 104 103 102 102 102 102 102 102 102 102 101 100 100 100 99 98 97 97 95 94 93 91 90 88 85 86 87 86 86 85 84 84 84 83 83 82 82
68 68 72 77 78 79 80 81 82 85 86 87 88 90 90 90 90 91 91 91 92 92 89 87 85 84 87 89 91 96 97 97 98 99 100 101 103 104 106 107 108 108 107 106 106 105 104 104 103 103 102 102 101 100 100 100 100 100 100 99 98 98 97 97 96 96 95 93 92 91 90 89 85 82 83 85 84 84 84 83 83 83 82 81 80 80
72 71 73 77 79 80 82 83 84 85 87 89 91 92 93 93 93 94 94 93 94 94 92 91 89 88 91 93 94 98 100 100 100 100 102 104 104 104 105 106 107 107 107 106 106 105 104 103 102 101 101 100 99 99 99 99 98 98 98 97 96 96 95 95 95 94 93 92 91 90 89 87 84 81 81 83 82 82 82 82 82 81 80 79 79 79
77 75 75 78 80 81 82 83 85 86 88 90 92 94 94 95 95 95 95 96 97 98 97 98 96 94 96 98 99 101 103 103 102 102 102 103 104 105 105 104 105 105 105 104 104 103 102 101 100 99 99 98 97 97 96 96 96 96 95 95 95 94 94 94 93 93 91 90 89 88 86 85 82 80 80 81 80 80 80 80 80 80 79 78 78 77
79 79 79 80 82 83 84 84 85 87 89 91 93 94 94 94 94 95 95 97 99 102 103 104 103 99 100 102 102 103 104 104 104 103 101 101 102 102 102 103 103 103 102 102 102 101 100 99 98 97 97 96 95 95 95 94 94 94 93 93 94 93 93 92 92 91 90 88 87 86 84 82 80 79 79 79 79 79 79 79 79 79 78 77 77 76
82 82 82 82 83 85 86 86 87 89 91 93 94 95 95 96 97 98 99 99 101 103 105 107 106 101 100 102 102 102 103 103 103 102 99 98 99 99 99 100 100 100 100 100 99 99 98 97 96 95 95 94 93 93 93 93 93 93 92 92 92 92 92 91 90 90 89 87 85 84 82 80 79 78 78 78 78 78 78 78 78 78 77 76 75 75
84 84 84 85 86 87 87 88 89 90 92 95 97 98 98 99 100 101 102 102 101 101 102 104 103 97 95 98 99 99 99 99 99 99 97 96 96 95 95 96 97 97 97 97 97 97 96 95 94 93 93 93 92 92 92 92 92 92 91 90 90 90 89 89 88 88 86 84 83 83 81 79 78 78 76 76 77 77 77 76 77 78 77 76 75 74
87 87 87 87 87 87 87 88 89 91 94 97 99 100 99 99 99 99 100 100 99 97 98 100 98 92 89 90 92 92 93 94 95 95 95 94 93 92 92 92 93 93 93 94 94 94 94 94 93 92 92 92 92 92 91 90 90 90 90 88 88 88 87 87 86 85 83 82 81 82 80 78 77 77 75 75 76 76 76 76 76 77 77 75 74 74
89 90 90 91 90 89 89 90 91 92 94 96 98 98 96 95 94 93 93 93 91 89 88 90 90 86 83 84 85 85 87 88 88 89 89 90 90 88 87 88 89 89 89 90 90 91 92 92 92 92 92 92 92 92 90 89 89 89 88 87 86 85 85 84 84 83 81 81 81 81 79 77 76 76 75 75 76 76 75 75 75 76 76 75 74 74
91 92 94 96 98 98 97 97 97 95 94 94 94 93 90 88 87 86 85 86 85 81 79 81 82 79 78 79 79 80 81 81 81 81 81 83 84 84 83 84 85 85 85 86 86 87 88 89 90 90 90 90 91 90 90 88 87 88 87 86 84 83 83 82 82 81 80 80 80 79 77 76 76 75 74 74 75 75 75 74 73 74 75 75 74 74
92 94 97 99 102 103 102 102 101 99 96 93 90 88 86 85 84 83 83 83 83 80 77 78 78 76 75 76 75 75 76 76 76 75 75 76 77 78 79 80 81 82 82 83 83 84 85 86 87 88 88 88 88 88 88 87 87 86 86 85 84 82 81 81 81 80 80 80 79 78 76 76 75 74 74 74 74 75 74 73 72 72 73 74 74 74
94 95 97 98 100 102 101 100 99 97 95 92 89 87 86 85 84 84 84 84 83 81 78 77 78 78 77 77 76 76 76 76 75 73 73 73 73 73 74 76 77 78 79 81 82 82 83 83 84 85 86 86 86 87 87 86 86 85 85 84 83 81 81 80 80 79 79 78 78 76 75 75 75 73 73 73 73 74 73 72 71 71 72 73 74 74
95 95 95 95 95 96 96 95 95 95 94 93 91 90 88 87 86 86 86 85 83 83 82 81 81 81 80 78 79 79 79 78 76 74 73 72 72 72 72 73 74 75 76 77 79 80 81 82 82 82 83 84 84 84 84 84 84 84 84 83 82 81 80 79 79 78 77 77 76 74 74 74 74 73 72 72 72 73 73 71 70 70 71 72 73 74
94 93 92 90 89 90 91 92 93 95 94 94 94 93 91 89 90 90 90 88 86 85 86 85 83 83 82 81 81 81 82 80 78 75 73 73 74 73 72 73 73 73 74 74 76 77 79 79 80 80 80 81 81 82 82 83 83 83 83 82 81 79 79 78 78 76 76 75 74 73 73 74 73 72 72 71 71 72 72 71 69 69 69 70 72 73
92 90 88 86 86 87 88 89 91 93 94 93 93 93 93 92 92 93 94 93 91 89 88 88 87 86 85 84 84 85 85 84 81 77 75 75 77 77 76 75 75 74 74 74 74 76 77 78 78 78 79 79 79 80 80 81 82 82 82 81 80 79 78 77 76 75 75 74 72 71 72 73 73 71 71 70 70 70 71 70 69 69 69 69 70 72
89 88 87 86 86 87 87 87 89 91 92 91 90 91 92 92 92 93 95 96 96 95 93 92 93 92 91 90 90 90 91 91 89 85 81 79 81 82 80 78 76 75 74 73 73 74 75 75 76 77 77 77 78 78 79 79 80 81 81 80 79 78 77 76 76 74 73 72 70 70 72 73 72 70 69 69 68 69 70 70 69 68 68 68 69 70
88 87 87 86 85 85 85 85 86 89 90 90 89 89 89 90 89 89 92 95 98 98 96 96 96 96 96 96 95 95 96 97 97 94 90 85 84 84 82 81 78 75 74 72 72 72 73 73 74 75 75 75 75 76 76 77 78 79 79 79 78 77 77 76 75 74 72 70 69 69 70 71 71 70 68 67 67 67 68 69 69 68 68 67 68 69
86 85 85 85 84 83 83 83 83 86 89 89 88 88 88 89 88 86 86 91 96 97 96 97 97 97 97 97 97 97 97 98 99 99 97 93 89 86 83 81 79 77 75 73 72 72 73 73 73 74 74 75 75 74 75 76 76 77 77 78 77 77 76 75 74 73 71 69 67 68 69 69 69 68 67 65 65 65 67 68 68 68 67 67 67 68
82 81 81 82 83 83 82 82 82 83 86 88 87 87 88 89 89 86 82 84 91 95 94 95 95 95 96 96 96 96 97 97 98 99 99 98 96 94 89 86 84 81 78 75 73 73 73 73 72 71 71 72 73 72 73 74 75 76 76 77 76 76 75 74 73 72 69 67 66 67 67 67 67 67 66 64 63 63 65 67 67 67 67 66 66 66
79 78 77 79 81 82 80 81 82 83 85 86 85 85 86 87 89 86 79 76 83 90 91 92 93 94 94 95 95 96 96 95 95 97 98 97 97 97 96 94 92 88 85 82 78 75 73 72 71 70 68 68 69 69 69 70 72 73 73 74 74 74 73 72 71 70 68 66 66 65 65 65 65 66 66 63 62 62 63 65 66 67 67 66 66 66
77 75 75 76 79 80 79 78 79 81 83 85 83 82 83 84 87 87 81 75 78 85 88 90 91 92 93 94 95 95 96 95 93 94 96 96 96 96 96 96 95 93 91 88 85 81 78 76 73 70 67 65 65 66 66 66 68 69 69 70 71 71 71 70 69 68 67 65 65 64 63 63 64 65 64 62 61 61 62 63 65 65 66 66 66 65
75 73 73 75 77 79 78 77 78 79 81 83 83 82 81 82 84 87 85 80 80 83 86 87 89 90 91 92 93 94 95 94 92 92 93 94 95 95 95 94 95 95 93 91 89 86 84 83 82 78 73 67 63 64 64 64 65 66 66 66 67 67 68 68 67 66 65 65 64 63 62 61 62 63 63 61 60 61 61 62 63 64 64 65 66 65
74 72 72 73 75 76 76 76 76 78 80 81 81 82 82 82 83 85 85 83 82 84 86 87 88 89 89 90 92 94 95 94 92 92 92 92 93 93 94 93 93 93 93 92 91 88 85 83 83 82 79 74 67 64 64 64 63 64 65 65 65 65 64 65 65 65 64 63 63 62 61 60 60 61 61 60 59 60 60 60 62 63 63 64 65 64
72 70 70 71 71 72 72 71 73 75 77 79 80 82 82 82 83 85 84 83 83 84 85 87 89 90 89 90 90 92 94 95 93 92 92 92 92 92 93 93 92 91 91 91 91 90 86 83 82 80 79 77 72 67 65 63 62 62 63 63 63 62 62 62 63 63 62 62 61 60 60 58 58 59 59 58 58 59 58 59 60 61 62 63 63 63
71 69 68 69 69 69 68 69 71 73 74 77 80 82 82 83 84 84 84 84 85 85 85 86 88 90 90 90 90 91 92 93 93 93 92 92 92 92 92 92 92 91 91 90 90 89 87 84 82 80 78 76 72 68 65 62 59 58 59 59 59 59 58 58 60 60 60 60 60 58 58 57 56 56 57 58 58 58 57 57 58 60 61 62 62 62
72 68 67 68 68 68 68 70 73 74 74 77 80 82 83 85 86 87 87 87 88 89 88 87 89 90 90 90 91 91 91 92 92 93 92 92 92 92 91 92 92 91 90 90 90 90 89 86 83 81 79 77 74 71 68 65 59 55 56 57 56 55 53 53 56 58 58 58 58 56 56 55 55 55 56 57 57 57 57 57 57 58 60 61 61 61
72 70 69 70 71 70 70 73 76 77 79 81 84 85 86 88 90 91 91 92 92 92 92 92 92 93 93 93 93 93 93 93 94 94 94 93 93 93 93 93 93 92 92 91 91 91 91 89 86 83 81 79 76 73 72 69 62 55 54 56 56 54 52 51 53 56 57 57 56 55 54 54 54 54 55 56 56 57 57 57 57 57 59 60 60 60
73 72 72 73 75 75 75 78 80 80 83 87 88 89 90 92 93 95 96 96 96 96 96 95 95 95 95 96 95 94 94 94 95 95 95 95 94 95 94 94 93 93 93 92 92 92 92 90 87 84 81 79 78 75 72 71 65 56 53 55 55 53 52 50 52 55 57 57 56 54 53 53 53 53 54 54 55 56 57 57 57 57 58 59 59 59
74 75 76 76 77 78 80 83 84 83 86 89 89 91 94 95 95 98 99 100 99 99 98 98 97 97 97 97 97 96 95 95 96 96 96 95 94 94 93 93 92 92 91 90 90 90 90 89 87 84 81 78 77 75 72 70 66 57 52 53 54 52 51 50 52 55 56 56 55 53 52 51 51 52 52 53 54 55 56 57 57 57 58 59 59 58
77 78 79 79 80 80 81 84 86 87 90 92 92 93 98 100 100 102 102 102 101 101 100 100 100 99 99 99 99 98 96 95 96 96 95 94 93 92 92 90 90 89 89 88 87 87 87 86 85 82 78 74 73 73 70 68 65 59 53 52 52 51 50 50 53 55 56 55 54 52 51 51 50 50 51 52 53 55 56 56 57 57 58 59 58 57
80 81 82 83 84 85 85 87 89 92 97 100 99 99 102 104 105 105 105 104 103 102 102 102 101 101 101 101 100 100 98 96 97 97 96 94 93 91 89 87 87 87 87 87 86 85 84 84 82 79 75 71 69 69 67 65 64 60 54 52 51 49 49 51 53 54 55 55 53 52 50 50 49 49 50 51 52 54 55 56 56 57 58 58 58 57
85 86 88 88 90 92 93 93 95 97 101 105 106 105 105 106 106 105 105 104 103 103 102 102 102 102 103 102 102 101 99 97 98 98 97 96 94 92 90 88 87 86 86 85 85 85 84 82 80 77 73 68 65 64 63 63 61 59 56 53 50 48 49 51 53 54 55 54 53 51 50 48 48 48 49 50 52 54 55 55 56 56 57 58 57 56
89 91 93 94 95 97 98 99 100 100 100 103 105 106 105 105 104 103 102 102 101 101 101 101 100 101 102 102 102 101 99 97 97 98 98 97 96 94 91 89 86 84 83 82 81 81 81 79 77 75 71 66 61 59 59 59 58 57 56 54 50 48 49 51 53 54 55 54 53 51 49 48 47 47 48 50 52 54 54 55 55 56 56 57 56 55
91 93 95 97 98 100 102 103 105 104 103 103 105 106 106 105 103 101 100 99 99 99 100 100 99 98 99 101 101 101 99 97 96 96 96 96 95 94 90 87 85 82 80 79 77 76 76 76 74 71 68 64 60 56 55 55 54 55 55 53 50 49 50 51 52 53 54 54 53 50 49 47 47 47 48 50 52 53 54 54 55 55 55 55 55 54
93 95 97 99 102 104 106 107 109 109 109 108 107 107 106 105 104 101 100 99 99 100 101 101 101 100 100 100 99 99 98 96 93 93 92 91 91 90 88 86 83 80 77 76 75 74 73 73 72 70 67 64 60 55 52 50 51 52 52 50 49 49 50 51 52 52 53 53 52 50 48 47 47 47 48 50 52 52 53 53 54 54 53 53 53 52
Wind_Direction
294 295 294 293 291 290 289 288 288 289 290 291 292 293 295 295 296 296 296 296 297 298 299 300 301 300 300 301 302 302 303 304 305 306 307 307 308 309 310 310 310 310 310 310 311 311 311 311 311 311 311 311 311 310 310 310 310 310 311 311 310 311 311 311 311 311 311 311 311 312 312 313 314 314 315 315 315 314 315 314 315 315 316 317 317 318
299 298 296 295 293 292 291 291 292 292 293 294 294 295 296 296 296 296 296 297 298 299 300 302 303 301 300 302 303 304 304 305 306 307 307 308 309 310 310 310 310 309 309 310 310 310 310 310 310 310 310 310 310 310 310 310 310 310 310 311 311 311 311 312 312 312 312 312 312 312 313 314 314 315 315 315 315 314 315 315 315 316 317 318 318 319
299 298 296 295 294 294 295 296 296 297 296 297 296 297 296 296 297 297 298 298 298 299 300 302 304 302 301 302 304 305 306 306 307 307 307 308 309 310 310 310 310 309 309 309 309 309 309 309 310 310 310 310 310 310 310 310 310 310 310 311 311 312 312 312 312 312 312 312 312 313 313 314 314 315 315 315 315 315 315 315 316 317 318 319 319 319
298 297 296 296 297 298 299 299 299 299 298 298 297 297 297 297 297 298 299 300 300 300 300 302 305 305 303 303 305 307 307 307 307 307 308 308 309 310 310 310 310 309 309 309 309 309 309 309 309 310 310 310 310 310 310 310 310 310 310 311 311 312 312 312 312 312 312 312 312 313 313 314 314 315 315 315 315 315 316 316 317 318 319 319 320 320
298 299 299 299 300 299 299 299 299 299 298 298 298 297 298 298 298 298 299 300 301 302 302 302 305 307 305 303 305 308 307 307 308 307 308 309 310 310 310 310 310 309 309 309 308 308 308 308 309 310 310 310 310 310 310 310 310 310 310 310 311 311 311 311 311 311 311 312 312 313 313 314 315 315 315 315 316 316 316 317 318 319 319 320 320 321
301 301 301 300 300 299 299 299 299 299 299 298 298 298 299 299 299 300 300 301 302 303 303 303 304 307 306 304 304 307 306 306 307 306 307 308 309 310 310 310 309 308 308 308 307 307 307 308 309 310 310 310 310 309 309 309 309 309 309 310 310 311 311 311 311 311 311 312 312 313 313 314 315 315 316 316 316 316 317 318 318 319 320 321 321 321
301 300 300 300 300 300 299 299 299 299 299 299 299 299 300 300 300 301 302 302 303 304 304 303 303 306 307 304 304 306 306 306 306 305 306 307 309 309 309 309 308 307 307 307 306 306 307 307 309 310 310 310 309 309 309 309 309 309 309 309 310 310 310 310 310 310 311 312 312 313 313 314 315 316 316 316 316 317 317 318 319 319 320 321 321 321
300 300 299 299 300 299 299 299 299 299 299 299 299 299 300 300 301 302 302 303 303 305 305 305 305 307 307 305 304 305 305 305 305 305 306 307 308 309 309 308 307 307 306 305 305 305 306 307 309 310 310 309 308 308 308 308 308 308 308 309 309 309 310 310 310 310 311 311 312 313 313 314 315 316 317 317 316 317 317 318 319 320 321 321 321 321
298 298 298 299 299 299 299 299 299 299 299 299 299 300 300 301 301 302 303 303 303 305 305 305 306 307 307 306 304 305 305 304 304 304 305 306 307 308 308 307 307 307 305 303 303 304 305 307 308 309 309 308 307 307 307 307 307 307 307 308 308 309 309 310 310 310 311 311 312 313 314 315 316 316 317 317 317 317 318 318 319 320 321 321 321 321
298 298 298 298 298 298 298 298 298 298 298 299 299 300 300 301 301 302 302 302 303 304 305 306 306 307 308 306 305 305 305 304 303 303 305 306 306 307 306 306 306 306 303 302 302 304 305 307 308 308 308 307 306 306 306 306 306 307 307 308 308 309 309 310 310 310 311 311 312 313 314 315 316 317 317 317 317 317 318 319 320 320 321 321 321 321
297 297 298 298 297 298 298 298 298 298 298 299 299 299 300 301 301 302 303 303 304 304 305 306 307 307 308 306 305 305 304 303 303 304 305 306 306 306 306 306 306 304 302 301 302 304 306 307 307 307 307 306 306 306 306 306 306 307 307 308 308 309 310 310 310 310 311 312 312 314 315 316 316 317 317 317 317 317 318 319 320 320 321 321 321 322
297 297 298 297 297 297 298 298 298 298 299 299 299 299 300 300 300 302 302 303 304 304 305 306 306 307 307 306 304 304 303 303 303 304 306 307 306 305 305 306 304 302 301 302 303 305 306 306 306 306 306 306 306 306 306 306 307 307 307 308 308 309 310 310 310 311 311 312 313 314 315 316 317 318 318 318 317 317 318 319 320 320 321 321 321 322
299 298 298 297 297 297 297 298 298 299 300 300 300 300 300 300 301 301 302 302 302 303 304 305 306 306 307 305 304 303 302 302 303 305 306 306 305 305 305 304 302 301 301 302 303 305 305 305 306 306 306 306 306 306 306 306 306 307 307 307 308 309 309 310 310 311 311 312 313 314 315 316 317 319 318 317 317 317 318 319 320 320 321 321 321 322
298 298 298 298 298 298 299 299 299 300 300 301 301 301 302 301 301 302 302 302 302 303 304 305 306 306 306 304 302 302 302 301 303 305 306 305 304 304 303 301 300 300 300 301 302 303 304 304 305 305 305 305 305 305 305 306 306 306 307 308 308 309 309 310 310 311 312 312 314 315 316 317 318 319 318 317 317 317 318 319 319 320 320 321 321 321
298 298 298 298 299 299 300 301 301 301 302 302 302 302 302 302 302 303 302 302 302 302 303 305 305 305 305 303 302 302 302 302 304 306 305 305 304 302 301 300 299 300 300 301 302 303 304 304 304 304 304 304 305 305 305 305 306 306 307 308 309 309 310 310 310 311 312 313 314 316 317 317 319 319 318 317 317 317 318 319 319 320 320 320 321 321
298 300 299 299 299 300 301 301 302 302 302 303 303 303 303 303 303 303 304 304 304 303 304 305 305 305 304 303 302 302 301 302 304 305 304 304 303 302 302 302 302 302 301 302 303 303 303 304 304 304 304 304 305 305 305 305 306 307 308 309 309 309 310 310 311 312 313 314 315 316 317 318 319 319 317 316 317 317 318 319 319 319 320 320 320 321
298 300 300 300 301 301 302 303 303 304 304 304 304 303 303 303 303 304 304 305 304 304 305 306 305 305 304 303 302 301 300 302 304 303 303 302 302 302 303 303 302 302 302 303 303 303 303 303 303 304 304 305 305 305 306 306 307 307 308 309 309 310 310 310 311 312 313 314 315 316 317 317 318 318 316 316 316 317 317 318 318 319 319 319 320 321
299 300 301 301 302 302 303 304 304 305 305 305 304 303 303 303 304 304 305 305 305 305 306 306 306 305 304 302 301 300 300 302 302 302 302 301 301 302 302 302 302 302 303 303 303 303 303 303 304 305 305 305 306 306 306 307 307 307 308 309 309 309 310 311 312 313 313 314 315 316 316 317 318 318 316 315 316 316 317 318 317 318 318 319 320 321
300 300 301 301 301 302 303 304 304 304 304 304 304 303 303 304 304 304 305 306 306 306 306 305 304 304 303 301 301 300 301 301 301 302 302 301 301 301 301 301 301 302 302 303 303 303 304 304 305 305 305 305 306 306 306 306 306 307 307 308 309 309 310 311 312 312 313 314 315 315 315 316 318 318 316 316 316 316 317 317 316 317 318 319 320 320
300 301 301 301 301 302 303 303 304 304 303 303 302 302 303 304 304 305 306 307 307 306 306 304 304 305 304 303 302 302 302 302 302 302 302 301 301 301 301 301 301 302 302 303 303 303 304 304 304 305 305 305 305 305 305 305 305 306 307 308 309 310 310 311 311 312 313 314 314 314 315 316 318 317 316 316 316 315 315 316 315 316 318 319 320 320
301 302 302 302 302 302 303 303 303 303 302 302 301 301 302 303 304 305 306 306 306 306 305 304 305 306 305 303 304 303 302 302 302 302 302 301 301 301 301 302 302 302 302 302 303 303 303 304 304 304 304 303 304 304 304 304 305 306 307 308 309 309 310 310 310 311 312 313 313 313 315 316 317 317 316 315 315 314 315 315 316 317 318 319 320 320
302 302 303 303 302 303 303 303 302 302 302 301 301 302 303 304 305 306 306 306 305 304 304 304 305 305 303 302 302 301 301 301 301 301 301 301 301 301 301 301 302 302 302 302 302 302 302 302 302 302 302 302 303 303 303 304 305 307 308 308 308 308 309 309 310 311 311 312 313 313 315 317 317 316 316 315 314 314 315 315 316 317 318 319 320 321
303 303 303 303 302 302 302 303 303 303 303 303 303 304 305 305 305 305 304 303 302 301 301 301 301 302 301 301 301 301 301 301 301 301 301 300 300 300 300 301 301 300 301 301 301 301 301 301 301 301 302 302 303 303 304 305 306 306 307 307 307 307 308 309 309 309 310 311 312 313 315 317 316 315 315 314 314 314 315 316 316 317 318 319 320 321
302 302 302 301 301 302 302 302 303 303 303 303 302 303 303 303 302 302 301 300 300 300 300 299 300 300 300 299 299 299 299 299 299 299 299 299 299 299 300 299 299 299 299 299 300 300 300 301 301 302 302 303 303 304 304 305 305 304 304 305 305 306 306 307 307 308 309 311 312 313 315 315 314 314 314 314 314 314 315 316 316 316 317 319 321 322
302 303 303 302 302 302 302 302 301 301 301 300 300 301 301 301 300 300 299 299 298 299 299 298 299 299 299 298 298 298 297 297 297 298 298 299 299 299 299 298 298 298 299 299 300 300 301 301 302 302 302 302 302 302 302 302 302 302 303 303 304 304 305 306 307 308 309 311 311 312 313 314 313 313 314 313 313 314 314 315 316 316 317 319 321 322
304 304 305 305 305 305 304 304 303 302 302 301 301 302 302 301 301 301 300 299 298 299 299 298 298 298 298 297 297 297 297 297 297 298 298 299 299 299 299 298 298 299 299 299 299 300 300 300 300 300 300 300 300 300 301 301 301 302 302 303 303 304 305 305 306 308 309 310 310 311 312 312 312 313 313 313 313 313 314 315 316 316 318 319 321 321
305 305 306 306 306 306 307 307 306 306 305 305 305 305 305 305 305 305 304 302 302 302 302 301 300 300 299 298 298 298 297 297 298 298 299 300 300 301 301 301 300 300 300 299 299 298 298 297 298 298 298 298 298 299 300 301 301 302 302 302 303 304 305 305 306 307 308 309 309 310 311 311 311 312 312 312 312 312 313 314 316 317 318 319 320 320
305 306 307 307 308 308 309 309 308 308 308 308 308 309 309 309 309 309 307 306 306 305 305 305 305 304 302 302 302 302 300 300 300 301 301 302 302 302 302 302 301 301 300 300 299 298 298 297 297 297 297 298 298 299 300 300 301 301 301 302 303 304 304 305 305 306 307 307 307 309 310 310 310 311 311 312 312 312 313 315 317 318 319 319 319 319
306 307 308 309 310 310 311 311 311 311 311 312 312 312 312 312 312 311 310 309 309 309 309 308 308 307 306 306 306 306 305 304 304 304 304 304 303 303 303 302 302 301 301 300 299 299 298 298 297 297 297 298 298 298 299 299 299 300 301 301 302 303 303 304 304 305 305 305 306 308 309 309 309 310 311 311 311 312 314 316 318 318 318 318 318 318
307 308 309 310 311 312 312 313 313 313 313 313 314 314 314 314 314 314 313 312 312 311 310 309 309 308 308 308 308 308 307 307 307 307 307 307 306 306 305 305 304 304 303 302 301 300 299 299 298 298 298 298 298 298 298 298 299 299 299 300 301 302 302 302 302 303 303 304 306 308 308 308 308 310 310 311 312 313 314 316 317 318 318 317 317 317
309 310 311 312 313 313 313 313 313 312 312 313 314 314 315 315 315 315 314 313 312 311 311 310 310 311 310 310 311 310 310 310 310 310 310 310 310 310 309 308 308 307 306 305 303 302 301 300 300 300 299 299 298 298 298 298 298 298 298 299 299 300 301 301 301 302 303 304 306 308 307 306 307 309 310 311 313 314 315 316 317 317 317 317 316 316
312 313 313 314 314 313 313 312 311 311 311 311 312 313 313 314 314 313 312 312 312 312 312 312 312 312 312 313 313 314 313 313 313 313 312 312 312 311 311 310 309 308 307 306 305 304 303 302 301 301 300 299 299 299 299 298 298 298 298 298 299 300 300 300 300 301 302 304 306 306 305 305 307 309 310 311 313 314 314 315 316 316 316 316 316 315
313 314 314 314 313 312 311 311 310 309 309 310 311 311 311 310 310 310 310 310 311 311 312 312 312 312 313 313 314 314 313 313 312 312 312 312 311 310 310 310 309 309 308 307 306 305 304 303 302 302 301 300 300 300 299 299 298 298 298 298 298 299 299 299 300 301 302 304 305 304 304 305 306 308 309 311 313 314 314 314 315 315 315 315 315 315
314 314 314 313 312 311 310 310 309 308 308 308 309 308 308 307 307 308 308 308 308 309 309 310 310 310 311 311 310 310 310 309 309 310 311 311 311 310 310 310 309 309 308 308 307 306 305 304 303 302 302 301 301 300 300 299 299 298 298 297 297 298 298 299 300 301 302 303 303 302 303 304 305 307 308 311 313 313 313 313 313 314 314 314 314 314
313 313 313 312 310 309 309 309 308 307 306 306 307 307 307 306 306 306 306 304 305 306 306 306 306 306 306 306 306 306 306 306 306 307 308 310 310 311 311 311 310 310 309 308 307 306 305 304 303 302 302 302 301 301 301 300 300 299 299 298 298 298 298 298 299 299 300 301 301 301 302 303 304 305 308 310 312 312 312 312 312 312 313 313 313 314
311 311 311 310 308 308 308 308 307 306 305 305 306 306 305 304 303 303 302 300 299 301 301 301 301 301 302 302 302 303 303 303 303 303 304 306 307 308 309 309 310 310 310 309 308 306 305 304 303 302 301 301 301 300 300 299 299 298 298 297 297 297 296 297 297 298 298 299 299 300 301 302 303 305 307 310 311 311 311 311 310 311 311 312 313 314
311 311 311 309 308 307 308 308 307 306 305 304 304 304 302 301 301 301 300 297 295 295 296 296 297 298 298 299 299 300 300 301 300 300 301 302 303 304 305 306 307 308 308 308 308 307 306 305 304 303 302 301 301 300 299 298 297 297 296 296 296 296 296 296 296 297 298 298 298 299 301 302 303 305 307 309 311 311 310 309 309 309 310 311 312 313
312 313 312 310 309 308 308 308 307 305 304 303 304 303 301 300 299 299 299 298 295 293 293 293 294 294 295 296 296 297 298 299 299 298 298 299 300 301 301 302 303 304 304 305 305 305 306 306 306 306 305 305 304 302 300 299 298 297 297 297 296 296 296 296 296 296 297 297 298 299 301 302 303 304 306 308 309 309 308 308 308 308 309 310 311 312
313 313 312 310 309 308 308 308 307 305 304 304 304 303 302 301 300 299 299 298 297 295 294 294 293 293 294 294 295 296 296 297 297 297 296 296 297 297 298 298 299 300 301 302 303 304 305 305 305 306 307 307 306 304 302 300 299 299 298 297 297 296 296 296 296 296 296 297 297 298 300 301 302 303 305 307 307 307 307 307 307 308 308 309 309 310
312 312 311 309 308 307 307 307 307 306 306 306 305 304 303 302 301 300 300 299 298 297 297 296 296 295 295 295 295 295 296 297 297 297 297 296 296 296 296 297 298 299 299 301 301 302 303 304 304 305 305 306 306 304 301 300 300 299 298 297 296 296 296 296 296 295 295 296 296 297 298 300 301 302 304 305 305 304 305 306 306 307 307 307 308 309
312 312 311 309 308 308 309 309 308 307 307 308 306 304 304 305 304 303 303 303 302 301 300 299 299 298 298 298 297 297 297 297 298 298 298 298 298 298 298 298 299 300 301 301 302 302 303 303 303 304 304 304 304 302 299 297 297 296 295 294 293 293 294 294 294 293 293 293 294 295 296 298 300 301 302 303 303 303 304 305 305 306 306 306 307 307
312 312 311 310 310 311 312 312 310 308 308 309 308 308 309 310 309 308 308 307 306 305 304 303 302 301 301 301 300 300 300 300 300 300 300 300 300 300 301 301 301 301 301 302 302 302 302 303 303 303 304 304 303 302 299 296 295 295 294 292 290 290 290 291 291 291 291 291 292 293 295 297 299 300 300 301 301 302 303 304 304 304 304 305 306 307
314 314 314 314 314 314 316 315 313 314 315 314 313 314 314 315 314 313 312 311 310 309 308 307 306 305 304 304 303 303 303 303 303 302 302 302 302 302 302 302 302 302 303 302 302 302 302 302 302 302 303 302 302 301 299 297 296 295 294 292 290 289 289 289 289 288 288 289 290 292 294 296 297 298 299 299 300 301 302 303 303 303 304 304 305 307
317 318 317 319 319 319 321 320 319 321 322 320 318 319 319 318 318 317 315 314 312 311 310 308 308 307 306 305 304 304 304 303 303 303 302 302 302 302 302 302 302 302 302 302 302 302 301 301 301 301 301 301 301 300 298 296 295 295 293 290 288 287 287 286 285 285 286 287 288 290 292 294 295 296 297 298 300 301 302 302 303 303 303 303 304 306
321 321 321 323 324 323 325 325 324 325 325 322 320 321 321 320 319 318 317 315 313 312 310 309 308 307 306 305 305 304 304 304 303 303 302 302 302 301 301 301 301 301 301 301 301 301 300 300 300 300 300 300 299 299 297 296 295 294 291 288 285 284 283 282 281 282 283 284 286 288 290 291 293 295 296 298 300 300 301 302 302 302 302 303 304 306
324 324 324 324 325 324 325 326 326 326 326 323 322 322 322 321 320 319 317 315 314 312 311 310 309 308 307 306 306 305 305 305 304 303 303 302 302 302 302 302 302 301 301 301 300 300 299 299 299 299 299 300 299 298 297 295 293 292 289 285 283 281 280 278 278 278 280 281 284 286 287 289 291 293 295 297 298 299 300 301 302 302 302 302 303 305
326 326 326 326 326 326 325 326 327 328 328 326 324 324 323 321 320 319 317 316 314 313 311 311 310 309 308 307 307 307 307 306 305 304 304 304 304 303 303 303 302 302 302 301 301 300 300 299 299 299 300 300 299 298 296 294 292 290 288 284 281 279 277 275 274 275 277 279 281 283 285 287 289 292 294 295 296 297 298 299 300 300 301 301 303 305
328 329 329 328 328 328 328 328 328 328 328 327 325 324 322 320 319 318 316 315 314 313 312 311 310 309 308 308 307 307 307 306 306 305 305 306 306 305 305 305 305 304 303 302 301 300 300 300 300 300 300 300 299 297 295 293 290 289 287 284 281 278 275 274 273 274 275 277 279 280 282 285 287 289 292 293 294 295 297 298 299 299 300 300 302 304
331 331 331 330 330 329 329 328 327 326 326 325 323 322 321 319 317 316 315 314 313 312 310 309 309 308 308 307 306 306 307 307 307 307 307 307 306 306 306 306 305 304 302 301 300 299 298 298 299 300 300 300 299 297 294 291 290 288 285 283 281 278 275 273 272 273 274 275 277 278 280 282 284 287 289 291 292 294 295 296 297 298 298 300 301 303
332 332 331 330 330 329 329 328 326 325 324 323 322 321 320 318 317 316 314 313 311 310 309 308 308 308 307 307 307 308 308 308 308 307 307 307 306 306 306 306 305 304 303 302 300 299 299 298 299 300 301 301 300 297 294 291 289 286 283 281 280 277 274 272 271 272 273 274 275 277 278 280 282 285 287 289 290 292 294 295 295 296 297 298 300 302
332 332 331 330 330 329 329 328 327 326 325 323 322 321 320 318 317 315 314 312 311 310 310 310 311 310 309 309 308 308 308 308 307 307 306 306 307 307 307 307 306 305 304 303 302 302 301 300 301 301 302 302 301 299 296 292 289 286 283 281 278 275 273 271 270 271 272 273 274 276 277 279 281 283 285 286 288 290 292 292 293 295 296 298 299 301
Height
10720 10718 10716 10714 10712 10710 10708 10706 10704 10702 10699 10697 10694 10692 10689 10687 10684 10681 10679 10676 10674 10670 10666 10663 10657 10652 10652 10651 10645 10641 10638 10635 10630 10625 10621 10617 10613 10609 10605 10600 10595 10591 10586 10581 10576 10571 10566 10561 10556 10550 10544 10539 10534 10528 10523 10517 10512 10507 10503 10498 10493 10487 10482 10477 10472 10467 10462 10457 10452 10447 10441 10436 10430 10424 10418 10410 10402 10393 10385 10377 10369 10360 10352 10343 10334 10324
10718 10716 10714 10712 10710 10708 10706 10703 10701 10699 10696 10694 10691 10688 10686 10683 10680 10677 10675 10672 10669 10666 10662 10659 10653 10644 10643 10645 10642 10636 10631 10628 10624 10619 10615 10611 10606 10602 10597 10593 10588 10583 10579 10574 10568 10563 10558 10553 10548 10542 10536 10531 10525 10520 10514 10508 10503 10498 10493 10489 10484 10478 10472 10467 10462 10457 10452 10446 10441 10436 10431 10425 10419 10413 10407 10400 10392 10383 10375 10366 10357 10349 10341 10332 10323 10313
10715 10713 10711 10709 10707 10705 10702 10700 10697 10695 10692 10690 10687 10685 10682 10679 10677 10673 10670 10667 10664 10662 10659 10657 10651 10638 10633 10636 10637 10632 10625 10620 10617 10612 10608 10604 10599 10595 10590 10585 10580 10574 10569 10565 10560 10555 10549 10544 10540 10534 10528 10523 10517 10511 10505 10499 10494 10489 10484 10480 10475 10469 10463 10457 10452 10447 10441 10436 10430 10425 10419 10414 10408 10401 10395 10387 10380 10372 10364 10355 10346 10337 10330 10321 10312 10303
10712 10711 10708 10706 10704 10701 10699 10696 10694 10691 10688 10686 10683 10680 10678 10675 10673 10670 10666 10662 10658 10656 10653 10654 10652 10639 10626 10624 10628 10627 10620 10613 10609 10604 10600 10597 10592 10587 10581 10576 10571 10565 10559 10554 10549 10545 10541 10535 10531 10526 10520 10514 10508 10502 10496 10489 10484 10479 10475 10470 10466 10460 10454 10448 10442 10436 10431 10425 10420 10414 10408 10402 10396 10389 10383 10375 10367 10359 10351 10344 10336 10327 10319 10311 10302 10293
10709 10707 10705 10702 10700 10697 10695 10692 10690 10687 10684 10681 10678 10676 10673 10670 10667 10665 10662 10659 10654 10650 10644 10645 10649 10642 10626 10617 10618 10619 10614 10608 10602 10595 10590 10588 10584 10578 10571 10566 10561 10555 10550 10544 10539 10534 10531 10527 10522 10518 10512 10506 10499 10493 10487 10480 10475 10470 10465 10461 10457 10451 10445 10438 10432 10426 10420 10415 10409 10403 10397 10390 10384 10377 10371 10363 10355 10348 10339 10331 10325 10317 10308 10300 10291 10282
10706 10704 10701 10699 10696 10693 10691 10688 10686 10683 10680 10677 10674 10671 10668 10665 10661 10658 10656 10654 10651 10647 10640 10635 10639 10640 10627 10613 10611 10612 10608 10603 10597 10589 10583 10580 10577 10571 10564 10557 10551 10546 10541 10535 10529 10523 10520 10518 10514 10510 10504 10497 10491 10484 10478 10471 10465 10460 10455 10451 10447 10442 10435 10428 10422 10416 10410 10405 10399 10393 10387 10380 10374 10367 10360 10352 10343 10335 10328 10321 10314 10307 10298 10289 10281 10273
10703 10700 10698 10695 10692 10689 10687 10684 10681 10679 10675 10672 10669 10666 10663 10660 10656 10653 10650 10648 10645 10642 10636 10628 10628 10633 10625 10609 10605 10605 10600 10595 10590 10582 10577 10574 10571 10565 10558 10550 10542 10536 10531 10525 10520 10515 10510 10508 10505 10502 10496 10489 10481 10475 10469 10463 10456 10450 10445 10441 10437 10432 10426 10419 10413 10406 10400 10395 10389 10383 10377 10370 10364 10357 10350 10341 10332 10324 10317 10311 10304 10297 10289 10280 10271 10264
10699 10696 10694 10691 10689 10686 10683 10680 10677 10674 10671 10667 10663 10661 10658 10654 10651 10648 10645 10641 10639 10637 10631 10623 10617 10620 10617 10602 10596 10598 10592 10587 10581 10574 10570 10568 10563 10559 10552 10544 10535 10527 10520 10514 10511 10507 10502 10500 10497 10494 10487 10480 10472 10466 10460 10454 10447 10440 10434 10430 10426 10422 10417 10410 10403 10397 10391 10385 10379 10373 10367 10360 10353 10346 10338 10330 10322 10314 10307 10300 10294 10287 10279 10271 10263 10255
10696 10693 10690 10688 10685 10681 10678 10675 10672 10668 10666 10662 10659 10656 10652 10649 10646 10642 10639 10635 10632 10630 10625 10619 10611 10610 10607 10592 10583 10586 10583 10578 10573 10567 10564 10561 10557 10552 10546 10537 10528 10519 10508 10502 10501 10499 10495 10493 10491 10486 10478 10470 10463 10456 10451 10445 10438 10431 10425 10420 10416 10412 10407 10400 10393 10387 10381 10375 10369 10363 10357 10351 10343 10336 10328 10319 10311 10304 10297 10291 10284 10277 10269 10262 10253 10245
10691 10689 10686 10683 10680 10677 10673 10670 10666 10663 10660 10656 10653 10650 10647 10644 10640 10637 10633 10628 10626 10625 10619 10613 10605 10601 10599 10584 10571 10570 10569 10565 10562 10559 10557 10555 10551 10546 10539 10531 10522 10510 10497 10490 10489 10489 10487 10485 10483 10477 10468 10460 10453 10447 10441 10436 10430 10423 10416 10410 10406 10402 10398 10391 10384 10377 10372 10365 10358 10353 10347 10341 10334 10327 10318 10309 10301 10294 10287 10281 10274 10267 10260 10252 10244 10236
10687 10684 10681 10678 10675 10672 10668 10664 10660 10657 10654 10651 10647 10645 10641 10638 10634 10631 10626 10620 10618 10616 10613 10608 10599 10592 10589 10578 10564 10558 10554 10550 10549 10549 10548 10546 10542 10537 10531 10524 10514 10500 10487 10478 10477 10479 10478 10476 10472 10467 10459 10450 10442 10436 10430 10426 10420 10414 10407 10401 10397 10393 10388 10381 10374 10367 10361 10354 10348 10343 10337 10331 10324 10317 10309 10299 10291 10284 10278 10271 10264 10257 10250 10243 10235 10227
10681 10679 10676 10672 10669 10666 10663 10659 10655 10651 10647 10644 10640 10637 10635 10632 10629 10627 10621 10616 10612 10608 10606 10602 10595 10588 10581 10569 10556 10549 10542 10537 10536 10538 10539 10536 10531 10526 10522 10515 10504 10490 10479 10470 10467 10468 10467 10464 10461 10456 10449 10441 10432 10425 10419 10414 10410 10405 10399 10392 10387 10383 10377 10370 10363 10357 10351 10344 10338 10333 10327 10321 10314 10307 10298 10290 10282 10275 10269 10262 10255 10248 10241 10234 10226 10219
10675 10672 10670 10667 10663 10660 10658 10654 10650 10646 10641 10637 10632 10628 10625 10622 10621 10621 10616 10610 10607 10603 10601 10597 10590 10584 10576 10561 10547 10540 10534 10527 10525 10529 10530 10525 10520 10515 10511 10504 10492 10480 10472 10467 10462 10460 10456 10452 10449 10445 10440 10432 10424 10416 10409 10403 10399 10394 10389 10383 10378 10372 10366 10359 10353 10347 10341 10335 10329 10323 10318 10311 10305 10297 10289 10280 10273 10266 10260 10254 10246 10240 10233 10225 10218 10211
10672 10667 10663 10661 10657 10653 10650 10647 10643 10640 10636 10630 10625 10620 10615 10610 10608 10610 10608 10603 10599 10596 10596 10592 10585 10579 10571 10556 10539 10532 10527 10519 10518 10521 10518 10512 10507 10503 10498 10491 10483 10473 10465 10461 10457 10452 10447 10443 10440 10436 10431 10424 10416 10408 10401 10395 10389 10384 10379 10374 10368 10362 10355 10348 10342 10337 10331 10325 10319 10314 10308 10302 10295 10288 10280 10271 10264 10257 10251 10245 10238 10231 10224 10217 10210 10203
10670 10663 10658 10655 10652 10648 10644 10640 10635 10631 10628 10624 10617 10611 10606 10600 10595 10594 10595 10593 10590 10588 10589 10588 10580 10573 10565 10549 10532 10523 10517 10509 10509 10510 10504 10497 10492 10486 10481 10477 10472 10466 10458 10453 10448 10443 10438 10433 10429 10426 10421 10415 10407 10400 10392 10385 10379 10373 10368 10363 10357 10351 10345 10338 10332 10327 10321 10315 10310 10304 10298 10292 10286 10280 10271 10262 10255 10249 10243 10236 10229 10222 10216 10209 10202 10195
10668 10660 10652 10648 10645 10642 10638 10633 10627 10622 10619 10616 10609 10602 10597 10592 10586 10582 10581 10580 10575 10573 10578 10580 10575 10567 10557 10543 10528 10517 10508 10502 10502 10500 10492 10486 10476 10467 10464 10460 10456 10452 10447 10442 10438 10434 10428 10421 10416 10412 10408 10403 10397 10390 10382 10375 10369 10362 10356 10352 10346 10340 10334 10328 10322 10316 10311 10305 10300 10294 10289 10283 10278 10271 10263 10254 10247 10240 10234 10228 10221 10215 10208 10201 10195 10188
10664 10658 10647 10641 10638 10634 10630 10626 10619 10613 10608 10605 10600 10592 10587 10583 10577 10572 10571 10570 10564 10560 10564 10566 10565 10559 10547 10536 10525 10510 10502 10499 10495 10489 10483 10477 10466 10456 10451 10446 10440 10436 10433 10430 10425 10421 10416 10410 10404 10399 10394 10389 10384 10377 10371 10363 10357 10351 10345 10341 10335 10329 10323 10317 10311 10306 10300 10296 10290 10285 10280 10275 10270 10263 10254 10247 10239 10232 10226 10220 10213 10207 10201 10194 10188 10181
10657 10656 10645 10634 10630 10626 10622 10618 10613 10606 10598 10593 10588 10581 10576 10574 10569 10563 10560 10560 10554 10549 10551 10550 10550 10547 10534 10525 10517 10502 10494 10493 10486 10479 10473 10465 10458 10451 10443 10435 10429 10424 10419 10416 10411 10406 10402 10397 10391 10386 10380 10374 10369 10364 10358 10352 10346 10340 10334 10330 10325 10319 10313 10307 10301 10296 10291 10287 10281 10276 10271 10266 10262 10255 10246 10238 10231 10224 10218 10212 10206 10200 10195 10188 10181 10174
10646 10648 10643 10631 10625 10621 10616 10611 10607 10601 10592 10584 10577 10570 10565 10563 10561 10556 10552 10549 10543 10538 10538 10534 10535 10535 10521 10510 10505 10493 10485 10482 10476 10472 10463 10453 10447 10441 10434 10428 10420 10414 10407 10402 10397 10392 10387 10383 10378 10374 10367 10362 10357 10352 10347 10341 10335 10330 10324 10319 10315 10309 10303 10297 10291 10286 10282 10278 10272 10267 10262 10257 10252 10246 10238 10230 10223 10217 10211 10205 10199 10193 10188 10181 10174 10167
10636 10637 10635 10627 10619 10615 10612 10606 10600 10594 10586 10578 10569 10562 10558 10554 10551 10547 10542 10538 10529 10522 10519 10513 10515 10519 10506 10495 10493 10482 10473 10468 10463 10461 10455 10444 10436 10428 10421 10417 10410 10404 10397 10391 10386 10381 10376 10372 10367 10362 10357 10351 10347 10342 10337 10331 10326 10321 10315 10309 10303 10298 10293 10287 10282 10277 10273 10269 10264 10258 10253 10248 10242 10236 10229 10222 10215 10209 10204 10198 10192 10186 10180 10174 10167 10160
10628 10626 10625 10619 10612 10606 10603 10599 10593 10585 10577 10569 10561 10555 10552 10549 10545 10541 10538 10532 10520 10510 10502 10492 10495 10501 10489 10479 10478 10468 10460 10455 10447 10446 10444 10435 10426 10417 10410 10404 10397 10392 10386 10380 10375 10370 10365 10361 10356 10351 10346 10341 10337 10332 10327 10321 10315 10311 10305 10299 10292 10287 10282 10278 10273 10268 10264 10260 10255 10249 10244 10239 10233 10227 10221 10214 10208 10202 10197 10191 10184 10178 10173 10167 10161 10153
10620 10617 10614 10610 10604 10598 10593 10588 10583 10575 10565 10557 10550 10545 10543 10540 10534 10530 10527 10523 10514 10504 10494 10481 10482 10487 10475 10465 10464 10455 10446 10442 10433 10430 10430 10422 10415 10408 10401 10393 10385 10379 10373 10368 10364 10359 10354 10350 10345 10340 10335 10330 10327 10322 10316 10311 10304 10299 10294 10289 10283 10277 10272 10268 10263 10258 10254 10250 10245 10239 10234 10230 10224 10218 10213 10207 10200 10195 10189 10183 10176 10170 10165 10160 10154 10146
10611 10607 10604 10600 10594 10589 10584 10578 10572 10565 10555 10545 10538 10532 10532 10530 10523 10516 10509 10505 10500 10494 10487 10477 10475 10479 10467 10453 10451 10443 10433 10428 10420 10416 10414 10409 10403 10398 10391 10384 10376 10368 10362 10356 10351 10346 10342 10338 10333 10328 10323 10318 10314 10310 10305 10299 10294 10288 10283 10279 10274 10268 10263 10259 10254 10249 10245 10241 10235 10229 10225 10221 10216 10210 10205 10199 10193 10187 10181 10176 10169 10163 10158 10153 10147 10139
10600 10596 10593 10590 10586 10582 10577 10570 10565 10558 10548 10538 10530 10525 10525 10521 10514 10507 10497 10489 10486 10481 10474 10465 10463 10468 10460 10446 10440 10433 10424 10417 10409 10403 10400 10396 10392 10388 10382 10374 10366 10359 10353 10347 10341 10335 10329 10324 10320 10316 10311 10306 10301 10297 10293 10289 10284 10279 10274 10270 10265 10259 10255 10251 10246 10241 10236 10231 10226 10220 10216 10213 10208 10203 10197 10191 10185 10179 10174 10168 10162 10156 10151 10146 10140 10132
10589 10584 10579 10575 10572 10571 10570 10564 10559 10555 10545 10535 10526 10521 10519 10513 10503 10497 10489 10480 10477 10474 10466 10454 10449 10453 10448 10438 10431 10423 10414 10408 10401 10394 10388 10382 10378 10376 10371 10364 10355 10349 10343 10337 10331 10325 10318 10312 10307 10303 10299 10294 10289 10286 10283 10280 10275 10270 10265 10260 10256 10251 10246 10241 10236 10231 10227 10222 10216 10212 10209 10205 10200 10194 10189 10183 10177 10171 10166 10161 10156 10150 10144 10138 10132 10125
10579 10572 10565 10558 10552 10550 10549 10544 10540 10539 10534 10526 10518 10511 10507 10500 10491 10485 10478 10469 10464 10465 10460 10448 10441 10442 10437 10427 10421 10412 10402 10397 10392 10386 10380 10372 10366 10363 10357 10351 10345 10339 10334 10328 10322 10316 10310 10304 10298 10294 10290 10285 10280 10276 10273 10270 10265 10260 10254 10250 10246 10242 10237 10232 10227 10222 10218 10213 10208 10204 10201 10196 10191 10186 10180 10175 10169 10163 10158 10154 10149 10143 10136 10129 10124 10118
10572 10565 10557 10549 10539 10533 10530 10524 10517 10514 10511 10507 10503 10496 10489 10483 10477 10469 10461 10453 10448 10448 10446 10437 10429 10428 10422 10414 10409 10402 10393 10387 10383 10379 10374 10366 10359 10353 10346 10339 10333 10328 10323 10318 10313 10308 10303 10298 10292 10286 10281 10277 10272 10267 10262 10259 10254 10249 10244 10239 10236 10232 10228 10223 10219 10214 10210 10205 10200 10197 10193 10188 10182 10178 10173 10167 10161 10156 10151 10147 10142 10136 10128 10122 10116 10111
10564 10559 10552 10544 10533 10524 10518 10512 10503 10497 10491 10487 10484 10479 10473 10467 10461 10454 10444 10437 10433 10430 10428 10423 10415 10409 10404 10399 10393 10386 10379 10375 10372 10369 10365 10359 10352 10346 10340 10333 10325 10319 10313 10307 10301 10297 10293 10289 10284 10278 10272 10267 10262 10257 10252 10248 10243 10238 10233 10229 10227 10223 10219 10214 10210 10206 10202 10197 10193 10189 10185 10179 10174 10170 10165 10159 10154 10148 10144 10139 10134 10128 10121 10115 10109 10104
10555 10550 10545 10539 10528 10516 10508 10500 10491 10483 10477 10472 10466 10462 10459 10453 10446 10439 10430 10424 10420 10414 10409 10406 10401 10394 10389 10386 10379 10370 10363 10359 10357 10356 10352 10347 10342 10337 10332 10326 10319 10313 10307 10300 10293 10287 10282 10277 10273 10269 10263 10258 10253 10248 10243 10238 10233 10228 10224 10220 10217 10214 10210 10206 10202 10198 10194 10189 10185 10182 10177 10171 10166 10162 10157 10152 10147 10141 10135 10131 10126 10121 10115 10109 10103 10097
10546 10541 10536 10532 10523 10511 10502 10492 10481 10473 10467 10462 10455 10449 10446 10440 10432 10424 10417 10411 10407 10402 10396 10391 10389 10383 10377 10373 10368 10359 10352 10347 10344 10343 10339 10333 10328 10324 10320 10316 10310 10305 10299 10293 10286 10279 10273 10267 10263 10259 10254 10249 10244 10239 10234 10229 10224 10219 10215 10211 10208 10205 10201 10196 10193 10189 10185 10181 10177 10174 10169 10162 10158 10154 10149 10144 10139 10133 10127 10123 10118 10113 10108 10103 10097 10091
10537 10531 10525 10522 10515 10505 10496 10487 10476 10465 10458 10454 10449 10441 10435 10430 10423 10413 10405 10399 10394 10391 10386 10379 10375 10371 10366 10361 10356 10347 10338 10333 10330 10328 10326 10320 10313 10309 10307 10303 10298 10293 10288 10283 10277 10270 10264 10258 10253 10248 10244 10239 10235 10230 10225 10220 10215 10209 10205 10202 10198 10195 10191 10187 10183 10180 10176 10172 10169 10165 10159 10153 10149 10146 10142 10137 10132 10126 10120 10115 10111 10106 10102 10097 10091 10085
10525 10520 10514 10509 10504 10495 10487 10480 10470 10458 10450 10446 10442 10436 10428 10422 10416 10407 10397 10388 10380 10376 10374 10368 10361 10357 10352 10347 10342 10334 10324 10317 10313 10311 10310 10308 10302 10295 10292 10289 10286 10282 10276 10271 10267 10260 10254 10248 10243 10238 10235 10230 10226 10221 10216 10212 10206 10200 10195 10192 10189 10185 10181 10177 10173 10170 10167 10164 10161 10157 10150 10145 10141 10138 10134 10130 10125 10119 10113 10107 10103 10099 10095 10090 10085 10079
10513 10509 10502 10496 10491 10484 10477 10471 10462 10450 10441 10436 10433 10429 10422 10416 10411 10404 10392 10380 10370 10364 10361 10357 10350 10344 10338 10333 10329 10324 10316 10308 10302 10298 10296 10295 10293 10287 10281 10277 10273 10270 10265 10260 10256 10250 10245 10239 10234 10228 10225 10221 10218 10214 10209 10203 10198 10192 10186 10182 10179 10175 10171 10167 10164 10161 10159 10157 10154 10149 10142 10138 10134 10130 10127 10123 10118 10112 10106 10100 10095 10091 10088 10083 10078 10072
10503 10499 10492 10484 10477 10472 10467 10461 10454 10444 10433 10427 10424 10420 10415 10408 10404 10401 10391 10376 10364 10357 10351 10346 10340 10334 10328 10323 10318 10315 10310 10302 10295 10288 10283 10280 10278 10276 10272 10267 10261 10257 10254 10249 10245 10239 10234 10230 10225 10220 10214 10210 10207 10204 10199 10194 10188 10183 10178 10173 10170 10166 10162 10159 10155 10153 10151 10149 10146 10140 10135 10131 10127 10122 10119 10116 10111 10105 10099 10093 10089 10084 10081 10076 10071 10066
10496 10490 10485 10475 10464 10459 10455 10450 10445 10438 10426 10418 10415 10410 10404 10397 10392 10392 10390 10375 10359 10352 10346 10339 10334 10328 10322 10318 10313 10307 10303 10297 10288 10280 10273 10269 10263 10258 10256 10253 10248 10244 10240 10236 10233 10228 10222 10217 10214 10211 10206 10201 10196 10193 10189 10184 10178 10173 10168 10163 10160 10156 10153 10150 10147 10145 10143 10141 10137 10133 10129 10124 10119 10114 10111 10109 10104 10099 10093 10087 10082 10077 10073 10069 10064 10059
10488 10482 10476 10467 10455 10449 10447 10440 10433 10426 10417 10409 10407 10402 10395 10388 10381 10382 10388 10378 10359 10348 10342 10334 10328 10324 10317 10311 10306 10301 10295 10291 10284 10273 10264 10261 10256 10248 10243 10238 10234 10230 10226 10221 10219 10215 10211 10206 10202 10199 10197 10193 10188 10184 10181 10176 10169 10165 10160 10155 10151 10148 10144 10142 10139 10136 10134 10132 10129 10125 10122 10117 10112 10107 10104 10101 10097 10092 10087 10081 10075 10070 10065 10061 10056 10052
10479 10474 10467 10458 10448 10440 10438 10433 10425 10416 10407 10399 10398 10395 10388 10381 10371 10367 10374 10375 10360 10346 10338 10330 10323 10317 10311 10305 10298 10293 10287 10283 10278 10267 10256 10251 10247 10240 10235 10228 10221 10218 10215 10209 10205 10201 10197 10192 10188 10186 10185 10183 10179 10175 10171 10167 10161 10156 10152 10148 10144 10140 10137 10133 10130 10127 10125 10122 10119 10117 10114 10109 10104 10100 10096 10093 10089 10085 10080 10075 10069 10064 10058 10053 10049 10045
10469 10465 10457 10449 10440 10431 10426 10423 10415 10407 10399 10391 10387 10383 10378 10373 10364 10355 10356 10360 10353 10341 10332 10325 10318 10311 10305 10299 10292 10284 10278 10275 10271 10262 10250 10243 10237 10231 10227 10222 10214 10207 10204 10199 10195 10192 10186 10180 10174 10170 10169 10168 10167 10162 10158 10155 10151 10146 10142 10139 10135 10132 10128 10124 10121 10118 10116 10113 10110 10107 10105 10101 10097 10092 10089 10086 10082 10078 10074 10068 10062 10057 10052 10047 10042 10038
10463 10459 10451 10442 10434 10425 10418 10412 10403 10394 10388 10382 10376 10370 10365 10361 10355 10347 10344 10343 10339 10330 10322 10314 10308 10303 10297 10290 10283 10274 10266 10263 10262 10256 10245 10238 10232 10224 10218 10215 10210 10202 10195 10190 10184 10180 10177 10172 10165 10160 10155 10154 10153 10149 10144 10142 10139 10135 10131 10128 10125 10122 10119 10115 10112 10109 10106 10103 10101 10099 10096 10093 10089 10085 10082 10079 10075 10071 10067 10062 10056 10050 10046 10040 10035 10031
10459 10454 10446 10436 10428 10420 10413 10405 10396 10387 10379 10372 10365 10358 10353 10350 10344 10337 10332 10329 10325 10318 10311 10302 10293 10287 10283 10278 10272 10264 10255 10248 10245 10243 10236 10227 10222 10215 10207 10202 10199 10194 10186 10180 10174 10167 10165 10162 10157 10153 10148 10144 10142 10138 10133 10130 10129 10125 10121 10118 10114 10111 10109 10106 10102 10099 10096 10094 10092 10090 10088 10086 10082 10078 10074 10071 10068 10064 10060 10055 10049 10044 10039 10034 10029 10025
10451 10447 10438 10427 10420 10414 10406 10397 10389 10383 10376 10367 10356 10349 10344 10339 10333 10326 10321 10315 10309 10304 10300 10293 10281 10273 10269 10265 10258 10251 10245 10236 10229 10226 10221 10213 10206 10201 10194 10186 10182 10178 10172 10167 10161 10155 10150 10148 10146 10143 10140 10136 10132 10128 10123 10121 10121 10118 10113 10109 10106 10103 10101 10097 10093 10090 10087 10084 10083 10081 10079 10078 10075 10071 10067 10063 10060 10056 10053 10048 10043 10037 10032 10027 10023 10019
10439 10436 10428 10418 10410 10406 10399 10388 10379 10375 10370 10360 10348 10341 10335 10326 10318 10312 10307 10301 10293 10286 10282 10278 10268 10259 10254 10249 10242 10235 10229 10222 10215 10209 10204 10199 10190 10184 10180 10173 10166 10163 10158 10153 10148 10142 10136 10133 10132 10130 10127 10124 10121 10116 10111 10108 10110 10109 10105 10100 10097 10095 10092 10089 10084 10080 10077 10075 10073 10072 10071 10069 10066 10062 10059 10056 10052 10048 10045 10041 10036 10031 10025 10020 10016 10012
10425 10421 10415 10407 10399 10395 10389 10378 10368 10361 10354 10343 10334 10327 10321 10312 10302 10295 10289 10283 10276 10268 10262 10259 10252 10244 10237 10232 10226 10220 10213 10207 10201 10194 10188 10183 10177 10170 10166 10160 10153 10148 10144 10139 10135 10129 10123 10119 10118 10117 10114 10111 10108 10104 10098 10093 10096 10099 10095 10090 10087 10085 10083 10080 10075 10070 10066 10065 10063 10063 10062 10060 10057 10054 10051 10048 10044 10040 10037 10033 10029 10024 10018 10013 10009 10005
10416 10409 10402 10396 10388 10381 10375 10366 10358 10352 10342 10329 10322 10315 10306 10298 10289 10280 10271 10264 10258 10252 10246 10241 10236 10229 10221 10214 10208 10205 10200 10193 10187 10181 10175 10170 10165 10159 10154 10149 10143 10137 10131 10127 10122 10116 10109 10105 10103 10103 10101 10098 10095 10092 10087 10081 10082 10088 10086 10080 10078 10076 10074 10071 10066 10060 10056 10055 10054 10054 10054 10051 10048 10045 10042 10040 10036 10033 10029 10025 10021 10017 10011 10007 10002 9999
10407 10399 10392 10388 10380 10373 10366 10355 10348 10345 10336 10323 10316 10308 10297 10289 10281 10271 10261 10252 10244 10238 10231 10224 10219 10214 10207 10200 10193 10189 10185 10179 10172 10166 10160 10155 10151 10146 10141 10136 10132 10126 10120 10116 10112 10105 10098 10092 10090 10089 10089 10087 10082 10078 10075 10070 10069 10074 10076 10071 10068 10068 10066 10062 10057 10051 10048 10046 10045 10045 10045 10042 10040 10037 10034 10031 10028 10024 10021 10017 10013 10009 10004 9999 9996 9992
10398 10390 10382 10378 10372 10367 10362 10352 10342 10336 10327 10315 10308 10300 10286 10276 10269 10259 10250 10241 10232 10224 10217 10209 10202 10196 10190 10183 10176 10171 10169 10164 10155 10148 10144 10139 10135 10131 10126 10122 10118 10112 10106 10103 10099 10093 10087 10081 10078 10076 10076 10076 10072 10067 10063 10060 10057 10060 10064 10062 10059 10059 10057 10052 10047 10043 10040 10038 10037 10037 10036 10034 10032 10029 10026 10023 10020 10016 10013 10009 10005 10001 9996 9992 9988 9985
10389 10382 10374 10368 10361 10353 10349 10342 10333 10324 10313 10300 10293 10287 10276 10265 10257 10248 10237 10227 10218 10210 10203 10194 10187 10179 10173 10167 10159 10153 10150 10146 10137 10129 10126 10123 10118 10114 10111 10108 10103 10098 10092 10087 10083 10079 10074 10069 10066 10064 10063 10064 10062 10056 10052 10049 10045 10046 10050 10050 10050 10049 10047 10042 10038 10035 10032 10030 10029 10028 10027 10026 10023 10021 10018 10015 10012 10008 10005 10001 9998 9994 9989 9985 9982 9979
10377 10370 10362 10356 10349 10341 10333 10326 10319 10313 10304 10289 10278 10272 10264 10253 10244 10237 10226 10216 10206 10197 10190 10182 10174 10164 10156 10150 10143 10137 10134 10130 10122 10112 10108 10105 10100 10096 10093 10090 10087 10082 10077 10072 10067 10062 10059 10056 10053 10051 10050 10051 10050 10046 10041 10038 10035 10034 10035 10037 10039 10039 10036 10032 10028 10026 10024 10021 10020 10019 10018 10017 10015 10012 10010 10007 10003 10000 9998 9994 9990 9987 9982 9978 9975 9972
10366 10359 10350 10342 10337 10329 10321 10314 10307 10303 10300 10290 10276 10267 10258 10246 10235 10227 10217 10206 10196 10186 10177 10171 10165 10156 10144 10135 10128 10123 10120 10116 10108 10097 10090 10085 10080 10078 10077 10075 10072 10068 10063 10058 10054 10050 10045 10043 10041 10039 10037 10037 10037 10035 10031 10028 10026 10024 10023 10025 10027 10027 10025 10022 10018 10016 10014 10013 10011 10011 10010 10008 10006 10004 10002 9999 9995 9992 9990 9986 9983 9979 9976 9972 9969 9966
10361 10353 10344 10335 10327 10319 10310 10301 10291 10282 10278 10272 10261 10250 10240 10229 10219 10211 10203 10193 10184 10174 10165 10157 10152 10146 10136 10124 10114 10108 10105 10103 10096 10086 10078 10071 10064 10061 10061 10060 10057 10054 10049 10043 10040 10037 10033 10030 10028 10027 10026 10025 10024 10023 10021 10020 10018 10014 10013 10014 10016 10015 10013 10011 10009 10006 10005 10004 10003 10002 10001 9999 9997 9995 9993 9990 9987 9985 9982 9979 9976 9972 9969 9966 9963 9960
10354 10345 10335 10324 10315 10305 10295 10286 10276 10265 10256 10249 10241 10231 10221 10210 10200 10193 10186 10177 10167 10158 10149 10140 10133 10126 10119 10111 10103 10095 10089 10088 10085 10077 10069 10064 10056 10049 10046 10044 10041 10039 10036 10030 10026 10024 10022 10019 10016 10014 10013 10012 10011 10011 10011 10011 10008 10005 10003 10004 10004 10003 10002 10000 9999 9998 9995 9994 9994 9993 9992 9990 9989 9987 9984 9982 9980 9978 9975 9972 9969 9966 9963 9960 9957 9954